Location: Nied?wied?
(53.3665°N, 14.8184°E)
Time: 23:32:17
(UTC+00:00)

COSMO-SKYMED 1 - Pass Details

Date: 03 March 2021
Orbit: 621 x 623 km, 97.9° (Epoch: 12 April)

Event Time Altitude Azimuth Distance (km) Brightness Sun altitude
Rises 17:41:39 0° 12° (NNE) 2,920 5.9 -9.6°
Reaches altitude 10° 17:43:52 10° 9° (N) 2,008 5.1 -9.9°
Maximum altitude 17:48:10 62° 290° (WNW) 709 3.2 -10.5°
Drops below altitude 10° 17:52:27 10° 210° (SSW) 1,992 5.5 -11.2°
Sets 17:54:39 0° 207° (SSW) 2,893 6.3 -11.5°
